Vorticity
nan nan nan nan nan nan nan nan nan nan nan nan nan nan nan nan nan nan nan nan nan nan nan nan nan nan nan nan nan nan nan nan nan nan nan nan nan nan nan nan nan nan nan nan nan nan nan nan nan nan nan nan nan nan nan nan nan nan nan nan nan nan nan nan nan nan nan nan nan
nan 12 13 12 12 13 11 9 8 7 8 9 8 8 10 11 11 9 8 8 8 8 9 6 2 2 2 7 13 14 14 14 13 15 16 15 14 15 15 17 22 27 34 36 33 29 27 25 20 16 15 17 19 19 18 19 21 21 19 13 9 11 12 11 10 11 10 8 nan
nan 11 12 11 10 12 12 9 5 4 8 12 10 9 10 11 11 10 9 7 7 9 10 6 2 2 5 10 13 12 11 13 15 17 15 13 13 14 14 12 11 14 19 22 24 22 20 19 17 15 15 17 19 20 20 20 21 19 17 10 6 8 10 12 13 10 9 11 nan
nan 11 11 8 7 12 14 9 4 6 12 13 10 10 12 11 10 9 8 8 10 11 9 7 6 5 6 6 8 10 10 11 16 18 18 16 15 16 15 11 9 10 12 13 14 14 13 12 12 12 12 14 16 18 20 20 18 14 13 10 8 9 9 11 11 10 11 13 nan
nan 10 10 7 8 12 13 8 6 10 14 12 10 10 11 11 9 8 9 10 10 7 5 8 12 8 4 3 5 8 8 10 15 17 15 14 16 17 17 13 9 9 9 9 10 11 12 13 13 12 12 13 14 14 16 18 16 13 11 11 11 11 10 10 9 10 11 12 nan
nan 8 9 7 9 13 13 8 9 13 14 10 6 8 11 10 7 6 9 9 6 4 7 13 14 10 7 6 7 8 8 9 10 11 13 15 14 13 15 15 13 12 9 9 9 10 10 13 13 12 11 10 9 10 12 13 13 12 11 11 11 11 11 11 10 12 13 14 nan
nan 8 9 8 9 11 10 10 12 13 13 8 4 6 9 9 6 6 11 13 10 9 12 11 8 10 10 11 10 8 8 7 6 7 12 14 13 13 14 14 14 13 12 10 11 11 10 11 12 12 10 7 6 7 8 9 10 10 10 10 10 10 11 11 12 14 16 17 nan
nan 9 9 9 9 9 9 11 13 13 13 8 3 4 7 8 8 11 14 15 12 11 12 6 2 7 12 14 13 10 8 7 7 7 9 10 10 14 15 13 13 13 12 12 12 13 14 12 10 10 9 9 8 8 7 7 8 8 9 8 9 10 11 11 13 14 16 15 nan
nan 9 10 10 10 9 10 10 11 11 10 7 5 6 9 9 10 13 15 14 10 9 10 6 2 7 10 13 14 14 12 8 6 7 8 8 9 12 14 13 12 13 13 12 11 12 16 15 11 10 11 11 11 11 10 7 7 7 7 6 8 9 10 11 12 13 13 12 nan
nan 10 11 9 8 11 12 11 9 8 8 7 7 9 10 10 11 13 15 11 7 7 9 7 6 9 10 11 12 13 14 12 8 6 7 8 8 10 13 12 11 14 15 14 12 12 15 15 12 13 14 14 13 14 13 11 9 8 7 8 10 10 9 8 8 9 9 9 nan
nan 10 11 9 8 11 12 12 10 7 7 7 8 10 11 10 10 11 12 10 7 7 9 8 8 11 12 11 9 10 12 13 10 7 6 7 9 10 11 11 11 13 15 16 16 14 13 11 10 11 15 16 14 13 14 15 15 12 10 11 11 9 7 6 6 6 7 8 nan
nan 10 10 9 10 12 13 14 11 7 5 6 9 11 11 8 7 9 9 9 11 11 9 8 9 11 14 11 8 9 10 10 11 11 8 6 7 9 10 11 10 11 13 15 17 16 12 10 10 10 12 16 15 12 11 15 17 16 14 13 11 9 8 7 5 5 7 9 nan
nan 9 9 9 10 12 13 13 11 7 5 6 9 11 10 7 6 9 9 10 13 13 9 8 9 11 11 10 10 9 10 9 10 12 10 8 8 7 9 9 10 12 13 12 14 15 13 10 10 11 12 15 15 12 10 12 15 15 14 14 12 12 11 9 7 7 8 9 nan
nan 9 9 9 11 13 12 12 11 7 4 6 9 10 10 8 8 9 9 9 11 11 10 10 10 9 6 8 10 9 10 10 9 10 10 10 9 9 9 8 9 13 15 12 9 10 12 12 11 12 12 13 13 12 11 11 12 12 13 14 14 14 14 12 11 10 10 9 nan
nan 9 9 10 11 12 11 12 11 7 5 7 9 10 11 9 8 9 8 9 11 12 10 11 10 6 5 7 9 10 10 10 9 9 8 8 9 10 10 9 9 12 14 14 11 9 9 11 12 12 13 12 12 12 13 12 11 11 12 12 14 15 16 15 14 13 12 10 nan
nan 9 9 10 10 11 11 13 11 7 6 7 9 10 12 10 8 8 8 11 13 10 8 9 11 9 6 6 9 10 10 9 8 8 8 6 7 8 9 9 9 10 11 13 13 11 10 10 11 10 12 12 12 12 13 13 11 11 11 11 12 13 15 15 15 15 14 12 nan
nan 8 9 8 9 10 11 12 11 8 7 7 9 11 12 11 10 8 8 11 12 8 7 10 12 10 8 9 10 9 8 7 7 8 7 6 6 7 8 8 9 9 10 11 11 10 10 11 11 10 10 11 11 11 11 13 12 11 10 11 11 12 12 14 15 15 15 14 nan
nan 8 8 8 8 9 10 11 10 9 8 9 11 11 11 10 10 10 9 10 10 8 9 11 12 10 8 10 13 11 8 5 6 7 7 7 7 7 7 8 8 9 10 10 10 10 10 10 11 11 11 10 11 11 11 12 11 10 10 11 11 11 11 12 14 14 15 14 nan
nan 8 8 8 8 9 9 10 9 9 9 10 10 10 9 9 10 11 10 9 9 9 11 12 11 10 8 10 13 13 10 5 4 7 8 8 8 7 7 8 8 8 9 10 10 10 11 10 10 11 11 11 11 11 12 12 11 10 10 10 11 11 12 12 13 14 14 14 nan
nan 8 8 8 8 9 9 9 9 9 10 9 8 9 9 9 10 10 10 10 9 10 11 11 11 10 9 9 11 13 14 8 4 6 8 8 7 7 7 7 8 9 9 9 9 10 12 12 11 11 11 10 10 11 12 12 11 11 11 11 10 11 12 13 13 14 14 14 nan
nan 8 9 8 8 9 10 10 9 9 9 9 8 9 10 9 9 9 9 10 10 10 10 10 9 9 10 10 11 13 16 11 6 8 9 8 7 7 8 7 7 9 9 8 8 10 12 12 12 12 12 10 9 9 11 11 11 11 12 12 11 11 12 13 13 13 13 13 nan
nan 9 9 9 9 9 10 10 10 10 9 9 9 9 9 10 9 8 9 9 9 10 10 9 8 8 9 10 11 12 15 12 9 10 10 10 8 8 9 6 5 7 7 7 8 10 12 13 12 13 14 11 8 9 9 10 10 10 11 12 11 11 12 13 13 13 12 12 nan
nan 10 10 9 8 9 10 11 10 10 10 9 9 9 10 9 9 9 9 10 9 9 10 9 7 7 8 9 10 11 12 12 10 11 11 12 11 10 11 8 4 5 8 6 6 9 14 13 11 13 14 12 9 9 8 9 10 10 9 10 11 11 11 12 12 12 12 12 nan
nan 10 12 9 7 9 10 10 10 10 9 9 9 10 10 10 9 9 8 9 9 10 12 11 7 6 7 8 9 10 10 10 10 10 10 12 12 12 13 10 7 6 7 3 1 9 19 19 14 13 13 13 11 9 8 8 9 9 9 9 10 10 10 10 11 12 12 12 nan
nan 10 10 9 9 10 10 9 9 9 9 9 9 10 10 10 10 10 9 8 9 9 10 11 10 9 8 7 8 9 9 8 8 9 10 10 12 13 15 13 9 7 4 -7 -8 6 18 23 23 20 16 13 12 11 10 8 8 9 10 10 10 10 9 9 10 10 11 12 nan
nan 9 9 9 9 9 9 9 9 9 9 9 9 10 10 11 10 9 9 9 9 9 9 9 10 9 9 6 7 9 11 9 7 8 9 9 10 13 16 14 11 7 -2 -10 -6 4 9 14 21 26 26 19 13 13 12 10 9 9 9 10 10 10 10 9 9 9 10 11 nan
nan 10 9 9 8 8 9 9 9 9 9 9 9 10 10 11 10 9 9 10 11 11 10 9 9 9 9 6 5 8 12 11 7 7 8 9 9 11 14 14 11 5 -8 -8 2 6 7 8 13 21 29 26 17 13 13 11 10 11 10 10 10 10 10 10 9 9 10 11 nan
nan 10 10 9 8 8 8 9 9 9 8 8 9 10 10 10 10 10 10 10 11 12 12 9 9 10 9 5 4 6 9 11 10 9 8 8 9 10 13 12 7 -0 -8 -3 7 8 8 8 10 15 24 30 23 14 11 12 13 13 12 10 9 8 9 10 10 9 9 10 nan
nan 9 10 10 9 9 8 8 8 9 9 8 9 10 10 10 10 10 9 9 11 13 13 11 10 10 8 7 6 6 7 10 11 9 8 8 10 10 10 10 5 -3 -8 1 10 9 8 9 10 13 18 30 30 18 11 10 13 14 14 13 10 9 9 9 10 10 10 9 nan
nan 9 9 9 9 9 9 8 9 9 10 9 8 9 10 10 9 9 9 9 10 12 13 12 10 9 9 10 10 9 8 9 9 9 8 8 10 10 9 9 6 -1 -7 0 10 9 9 9 11 13 15 26 30 22 13 9 11 13 14 13 13 13 12 10 9 10 10 10 nan
nan 9 9 9 9 9 9 9 9 9 10 9 8 9 10 9 9 9 9 9 9 9 10 10 10 10 10 11 10 9 10 9 9 9 9 8 9 9 10 8 5 1 -5 -0 9 9 9 10 12 13 15 25 28 20 13 10 11 11 11 10 12 16 19 17 12 10 9 9 nan
nan 9 9 9 9 9 9 9 9 9 9 9 9 9 9 9 9 9 10 9 8 8 9 9 9 9 9 10 9 9 9 9 9 9 9 9 9 10 10 8 4 0 -4 1 9 9 9 10 13 14 17 25 25 17 13 12 11 9 7 6 9 14 20 22 19 15 11 9 nan
nan 9 9 9 9 9 9 9 9 9 9 9 9 9 9 9 9 9 10 9 8 7 8 9 9 9 9 9 9 9 9 9 8 8 9 10 10 11 13 12 4 -4 -5 3 9 9 9 10 13 15 19 25 24 15 11 13 13 9 6 4 5 8 12 18 22 21 18 13 nan
nan 9 9 9 8 9 9 9 9 9 9 9 8 8 9 9 9 9 10 10 9 8 8 8 9 9 9 9 8 9 10 9 7 7 8 9 9 11 14 15 5 -7 -5 4 9 9 9 10 12 16 21 26 23 13 9 12 13 9 7 6 6 6 8 11 16 20 23 20 nan
nan 9 9 9 9 9 9 9 10 9 9 8 8 8 9 9 8 9 9 9 10 10 9 9 10 10 9 9 8 8 9 9 9 8 8 9 9 9 11 12 5 -4 -2 5 9 9 9 10 12 17 24 27 21 11 8 10 10 7 7 8 7 7 8 9 11 13 18 22 nan
nan 8 8 8 8 8 9 10 10 9 9 8 8 8 9 9 9 8 9 9 10 9 9 9 9 9 9 9 9 7 7 8 9 9 8 8 8 9 10 9 4 -1 -1 4 7 8 9 10 13 19 26 27 18 11 10 10 8 5 7 9 9 7 9 10 9 9 11 14 nan
nan 7 8 8 8 8 9 9 9 9 9 8 8 8 8 9 9 8 9 9 9 9 8 8 8 9 9 9 9 8 8 8 9 9 9 8 8 8 9 9 6 2 -2 1 5 7 8 9 13 20 28 24 15 12 12 12 9 6 7 9 9 8 11 11 9 8 7 6 nan
nan 7 7 8 8 8 9 9 9 9 8 8 8 8 9 10 9 8 8 9 9 8 8 8 8 8 9 9 9 7 8 8 8 9 9 8 7 8 9 9 8 5 -1 -1 3 6 7 8 12 19 28 24 14 14 13 11 8 8 9 10 8 8 12 13 10 8 5 4 nan
nan 7 7 7 8 8 8 9 9 9 8 8 8 8 9 10 10 8 8 9 8 8 8 7 7 9 9 10 10 7 7 8 8 8 9 8 6 7 9 10 9 6 1 -1 2 5 7 7 10 16 27 25 17 15 13 9 7 9 11 11 10 8 11 12 11 9 5 5 nan
nan 8 7 7 7 8 8 9 9 9 9 8 8 8 9 9 9 9 9 9 8 9 9 6 6 9 10 11 9 7 7 8 8 8 8 7 6 7 9 10 8 7 3 -0 1 4 6 7 9 15 27 26 17 15 12 9 7 8 10 12 11 10 10 10 11 10 7 7 nan
nan nan nan nan nan nan nan nan nan nan nan nan nan nan nan nan nan nan nan nan nan nan nan nan nan nan nan nan nan nan nan nan nan nan nan nan nan nan nan nan nan nan nan nan nan nan nan nan nan nan nan nan nan nan nan nan nan nan nan nan nan nan nan nan nan nan nan nan nan
CAPE
nan 0 0 2 3 3 3 4 6 6 6 7 9 8 8 9 12 11 11 13 12 12 12 16 16 15 15 15 24 24 188 491 325 151 151 97 140 160 160 137 84 12 12 5 7 7 16 33 65 65 84 171 208 270 270 501 611 672 672 590 754 813 813 786 784 784 692 710 760
nan 0 0 2 4 4 3 4 4 4 5 6 8 10 10 10 11 8 8 10 13 13 13 14 14 11 11 14 15 15 32 221 275 218 218 207 216 230 230 178 175 142 142 86 103 103 181 268 337 337 305 457 439 436 436 668 785 662 662 603 763 750 750 719 699 699 683 702 713
nan nan nan 1 2 2 3 3 5 5 5 6 6 8 8 9 7 6 6 7 12 12 12 12 10 11 11 11 18 18 15 31 149 235 235 220 227 235 235 183 165 146 146 149 141 141 176 241 301 301 322 401 493 618 618 650 680 732 732 695 718 743 743 774 795 795 751 675 688
nan nan nan 0 1 1 3 4 5 5 6 6 8 8 8 8 9 7 7 6 7 8 8 9 8 10 10 12 17 17 14 13 30 155 155 179 220 290 290 270 179 146 146 128 101 101 119 174 205 205 176 262 289 447 447 397 484 507 507 679 592 533 533 495 872 872 696 621 639
nan nan nan nan 1 1 3 5 6 6 6 8 7 7 7 8 8 7 7 8 7 6 6 6 6 7 7 12 19 19 19 15 14 30 30 78 165 314 314 279 212 175 175 153 130 130 124 134 139 139 98 126 164 282 282 315 309 284 284 338 421 539 539 491 469 469 464 453 504
nan nan nan 0 1 1 3 5 5 5 7 8 6 7 7 8 7 7 7 7 8 7 7 7 7 5 5 8 18 18 22 20 15 16 16 23 31 131 131 261 228 193 193 164 166 166 151 122 90 90 76 63 54 118 118 148 122 140 140 116 152 255 255 195 178 178 172 220 272
nan nan nan 1 2 2 3 5 5 5 5 7 6 6 6 7 7 6 6 7 10 9 9 9 6 6 6 6 9 9 16 18 16 18 18 17 16 23 23 81 182 165 165 160 131 131 141 133 123 123 79 74 83 79 79 69 77 71 71 22 14 46 46 35 35 35 57 117 112
0 1 1 3 4 4 4 4 5 5 3 4 5 7 7 8 8 7 7 7 8 9 9 8 9 8 8 6 8 8 10 15 17 18 18 15 18 16 16 22 63 91 91 101 111 111 98 132 162 162 219 239 151 142 142 141 94 48 48 18 5 3 3 3 2 2 6 19 9
0 0 0 1 0 0 1 2 3 3 3 3 5 6 6 8 9 8 8 8 9 8 8 9 9 13 13 13 10 10 7 10 20 21 21 20 20 22 22 18 17 31 31 57 60 60 44 72 144 144 223 288 258 225 225 214 262 98 98 10 3 3 3 2 3 3 1 2 2
nan nan nan nan nan nan 0 nan 0 0 2 3 3 5 5 7 7 8 8 8 12 9 9 10 11 13 13 16 15 15 9 9 16 25 25 23 22 24 24 23 19 17 17 27 37 37 37 33 25 25 108 272 234 272 272 356 391 213 213 44 6 4 4 3 2 2 1 1 1
nan nan nan nan nan nan 0 nan nan nan 0 2 5 4 4 6 6 8 8 12 11 9 9 11 12 12 12 15 15 15 9 9 14 24 24 29 21 22 22 25 25 25 25 20 23 23 37 17 7 7 13 51 81 179 179 287 297 199 199 19 4 3 3 3 2 2 1 0 0
nan 0 0 0 0 0 nan nan nan nan 0 2 8 6 6 6 7 11 11 11 7 10 10 12 11 12 12 11 13 13 13 10 12 16 16 21 22 19 19 20 27 29 29 25 28 28 27 21 13 13 7 7 10 23 23 32 29 20 20 8 4 3 3 3 2 2 1 0 0
nan 0 0 0 0 0 nan nan nan nan 1 3 10 9 9 6 7 10 10 9 8 11 11 12 12 12 12 11 10 10 11 10 10 13 13 13 12 17 17 17 20 28 28 32 29 29 26 24 20 20 15 10 8 5 5 5 4 4 4 5 4 3 3 4 3 3 4 3 0
nan 0 0 0 nan nan nan nan 0 0 1 3 10 11 11 9 9 10 10 8 10 13 13 12 12 10 10 9 11 11 10 12 10 10 10 9 10 10 10 14 14 20 20 30 30 30 26 25 24 24 20 17 8 4 4 3 3 4 4 7 7 7 7 6 6 6 5 3 2
nan 0 0 0 nan nan 1 0 nan nan nan 1 8 12 12 12 12 10 10 9 11 12 12 11 10 13 13 11 10 10 11 12 10 10 10 9 10 8 8 9 10 15 15 24 31 31 26 24 21 21 23 20 17 10 10 3 5 4 4 6 6 8 8 7 7 7 5 3 2
nan nan nan 0 0 0 1 1 0 0 0 1 10 14 14 13 14 13 13 12 12 9 9 10 12 13 13 15 14 14 12 13 10 9 9 10 9 7 7 7 7 10 10 15 24 24 27 24 22 22 22 23 20 14 14 7 7 5 5 5 7 7 7 7 5 5 6 4 2
nan nan nan 0 0 0 1 2 2 2 1 5 12 12 12 13 14 15 15 15 11 11 11 10 10 10 10 11 15 15 15 13 12 9 9 9 9 8 8 7 7 8 8 10 14 14 23 27 24 24 25 23 21 18 18 9 9 6 6 5 5 5 5 4 6 6 5 4 2
nan 0 0 0 1 1 2 6 9 9 9 11 13 10 10 12 14 16 16 16 15 13 13 11 10 8 8 9 9 9 8 9 10 12 12 10 9 7 7 6 7 9 9 7 7 7 9 13 20 20 21 20 21 22 22 16 10 10 10 6 5 5 5 5 5 5 4 4 3
nan 0 0 0 1 1 2 6 9 9 11 13 14 14 14 15 15 16 16 16 16 14 14 12 10 8 8 8 10 10 10 8 9 10 10 12 10 8 8 8 7 8 8 8 7 7 7 9 12 12 18 20 20 21 21 18 12 10 10 10 8 8 8 9 9 9 5 4 4
nan 0 0 0 1 1 3 6 8 8 10 14 13 14 14 15 15 15 15 14 14 15 15 13 11 9 9 8 11 11 12 8 9 9 9 10 11 10 10 12 9 9 9 8 6 6 6 7 8 8 13 19 20 20 20 20 14 9 9 9 8 9 9 11 11 11 6 5 4
nan 0 0 1 2 2 3 6 8 8 10 11 13 14 14 15 15 14 14 11 11 12 12 12 11 11 11 10 9 9 10 8 11 10 10 10 10 10 10 14 14 11 11 8 8 8 6 5 6 6 9 15 19 20 20 20 16 10 10 8 7 7 7 9 8 8 6 3 3
0 0 0 1 2 2 3 5 8 8 8 10 12 13 13 14 14 12 12 12 11 8 8 9 10 11 11 10 11 11 11 10 13 12 12 12 10 11 11 14 17 17 17 12 9 9 8 7 6 6 6 10 17 19 19 15 13 13 13 7 6 6 6 7 6 6 5 3 2
nan 0 0 1 2 2 2 4 5 5 6 7 8 9 9 12 12 10 10 11 12 11 11 12 11 12 12 15 13 13 13 12 14 14 14 14 14 14 14 14 16 13 13 13 12 12 7 8 7 7 7 9 15 17 17 16 13 13 13 10 7 5 5 5 6 6 6 4 3
nan 0 0 1 1 1 3 4 4 4 3 3 2 5 5 8 10 12 12 13 14 15 15 16 14 13 13 16 14 14 13 12 13 14 14 15 15 15 15 15 13 12 12 10 9 9 7 6 6 6 6 7 12 15 15 17 16 14 14 9 7 6 6 5 4 4 5 4 4
nan nan nan nan 0 0 1 3 2 2 2 0 nan nan nan 2 5 8 8 12 13 13 13 14 15 15 15 15 14 14 13 12 12 14 14 14 15 14 14 14 13 14 14 12 8 8 6 5 5 5 5 7 10 16 16 17 15 12 12 9 8 6 6 4 4 4 4 4 4
nan nan nan nan nan nan 0 1 2 2 0 1 nan nan nan nan nan 0 0 5 10 14 14 14 14 13 13 13 13 13 13 12 12 14 14 13 13 13 13 14 17 17 17 13 11 11 9 6 4 4 4 6 9 14 14 17 21 16 16 9 7 6 6 5 3 3 3 4 4
nan nan nan nan nan nan 0 0 1 1 0 nan nan nan nan nan nan nan nan nan 3 9 9 11 13 10 10 11 13 13 13 11 12 14 14 14 14 12 12 11 16 19 19 16 14 14 13 7 5 5 4 4 6 12 12 14 20 21 21 19 10 6 6 3 2 2 1 4 5
nan nan nan nan nan nan nan 0 1 1 1 nan nan nan nan nan nan nan nan nan 0 1 1 4 5 8 8 6 11 11 13 12 12 13 13 15 12 11 11 11 15 17 17 18 17 17 14 9 6 6 3 3 6 9 9 16 21 20 20 20 16 13 13 9 6 6 3 4 5
nan nan nan nan nan nan nan 1 1 1 2 0 nan nan nan nan nan nan nan nan nan nan nan 1 1 5 5 6 8 8 9 10 13 12 12 14 12 11 11 10 12 14 14 18 18 18 15 10 7 7 4 3 5 8 8 10 15 20 20 16 17 15 15 13 11 11 6 4 4
nan nan nan nan nan nan nan nan 0 0 2 2 1 nan nan nan nan nan nan nan nan nan nan 1 2 5 5 7 7 7 7 7 11 12 12 15 12 11 11 10 13 14 14 19 18 18 15 10 7 7 5 3 4 6 6 7 10 14 14 16 18 15 15 14 9 9 8 6 4
nan nan nan nan nan nan nan nan nan nan 3 2 3 nan nan nan nan nan nan nan nan nan nan 0 0 3 3 4 5 5 5 7 9 12 12 13 12 9 9 11 16 15 15 19 17 17 14 12 8 8 6 4 4 5 5 5 6 8 8 9 13 16 16 13 13 13 9 7 4
nan nan nan nan nan nan nan nan nan nan 1 4 3 1 1 nan nan nan nan nan nan nan nan nan nan 1 1 3 4 4 5 7 9 10 10 10 11 10 10 13 17 16 16 21 20 20 14 10 9 9 7 4 5 6 6 0 2 6 6 5 5 8 8 12 14 14 10 8 5
nan nan nan nan nan nan nan nan nan nan nan 4 4 2 2 nan nan nan nan nan nan nan nan nan nan 1 1 3 4 4 5 7 10 9 9 9 8 7 7 11 16 16 16 24 24 24 16 10 8 8 6 4 7 3 3 2 1 4 4 4 4 4 4 7 12 12 15 8 5
nan nan nan nan nan nan nan nan nan nan nan 1 5 1 1 1 nan nan nan nan nan nan nan nan nan 1 1 3 4 4 6 6 8 10 10 7 6 5 5 11 19 18 18 24 27 27 22 12 8 8 6 4 7 5 5 3 1 3 3 3 3 2 2 3 6 6 14 9 9
nan nan nan nan nan nan nan nan nan nan nan nan 3 1 1 0 0 nan nan nan nan nan nan nan nan 0 0 3 5 5 6 8 9 9 9 8 6 5 5 9 14 15 15 22 25 25 25 18 10 10 5 5 7 4 4 3 3 3 3 2 2 0 0 0 3 3 5 13 15
nan nan nan nan nan nan nan nan nan nan nan nan 0 0 0 nan nan nan nan nan nan nan nan nan nan nan nan 2 5 5 2 8 9 12 12 10 7 5 5 6 8 13 13 19 20 20 22 21 15 15 7 6 6 4 4 4 3 3 3 3 1 2 2 3 2 2 5 8 13
nan nan nan nan nan nan nan nan nan nan nan nan nan 0 0 nan nan nan nan nan nan nan nan nan nan nan nan 2 4 4 5 4 2 12 12 12 10 6 6 5 8 10 10 16 18 18 19 19 18 18 10 7 6 5 5 5 5 3 3 2 2 2 2 3 2 2 5 5 4
nan nan nan nan nan nan nan nan nan nan nan nan nan nan nan nan nan nan nan nan nan nan nan nan nan 0 0 1 4 4 6 4 4 8 8 11 11 7 7 5 8 12 12 14 16 16 17 18 19 19 15 9 8 6 6 6 6 4 4 3 3 4 4 3 3 3 4 3 nan
nan nan nan nan nan nan nan nan nan nan nan nan nan nan nan nan nan nan nan 0 0 0 0 0 0 1 1 2 2 2 5 4 4 4 4 10 11 6 6 6 8 12 12 14 14 14 16 17 18 18 17 13 12 9 9 7 6 5 5 4 3 3 3 4 3 3 3 3 nan
nan nan nan nan nan nan nan nan nan nan nan nan nan nan nan nan nan nan nan 0 1 1 1 0 1 1 1 0 0 0 2 3 5 6 6 8 9 6 6 7 7 10 10 13 13 13 15 16 18 18 17 13 14 12 12 10 7 6 6 4 4 4 4 4 4 4 2 2 nan
nan nan nan nan nan nan nan nan nan nan nan nan nan nan nan nan nan nan nan 0 0 0 0 0 1 0 0 0 nan nan 1 1 2 8 8 9 8 6 6 10 8 10 10 12 11 11 14 16 18 18 17 13 14 15 15 12 8 7 7 5 5 5 5 3 5 5 5 3 2